Miscellaneous Local Product
Issued by NWS North Platte, NE

Home | Current Version | Previous Version | Graphics & Text | Print | Product List | Glossary On
Versions: 1 2 3 4 5 6 7 8 9 10 11 12 13 14 15 16 17 18 19 20 21 22 23 24 25 26 27 28 29 30 31 32 33 34 35 36 37 38 39 40 41 42 43 44 45 46 47 48 49 50
000
AXUS43 KLBF 190610
MISLBF


WESTERN AND NORTH CENTRAL NEBRASKA HOURLY WEATHER ROUNDUP
NATIONAL WEATHER SERVICE NORTH PLATTE NE
100 AM CDT TUE SEP 19 2017

NOTE: "FAIR" INDICATES FEW OR NO CLOUDS BELOW 12,000 FEET WITH NO
SIGNIFICANT WEATHER AND/OR OBSTRUCTIONS TO VISIBILITY.

NOTE: STATIONS NOT REPORTING VARIABLES SUCH AS SKY/WEATHER OR
PRESSURE ARE PROVIDED BY RAWS AND APRS NETWORKS AND ARE NOT UNDER
NATIONAL WEATHER SERVICE QUALITY CONTROL.

...OBSERVATIONS IN AND NEAR THE EASTERN PANHANDLE OF NEBRASKA...

CITY           SKY/WX    TMP DP  RH WIND       PRES   REMARKS
PINE RIDGE     CLEAR     70  46  42 S22G30    29.72F
GORDON         FAIR      66  47  51 S16G22    29.76F
CHADRON        CLEAR     68  43  40 S25G38    29.69F
ALLIANCE       CLOUDY    58  48  69 SE14      29.77F
SIDNEY         CLEAR     63  46  54 S16       29.83F
CRESCENT LAKE    N/A     62  52  69 S12         N/A
$$

...OBSERVATIONS IN NORTHERN NEBRASKA AND FAR SOUTHERN SOUTH DAKOTA...

CITY           SKY/WX    TMP DP  RH WIND       PRES   REMARKS
WINNER         FAIR      68  61  78 S14       29.74F
VALENTINE      CLEAR     65  58  78 S12       29.77F
THEDFORD       CLEAR     64  59  81 S15       29.82F
AINSWORTH      CLEAR     60  59  96 S9        29.80F
O`NEILL        CLEAR     63  63 100 SE8       29.82F FOG
ORD            FOG       55  53  93 CALM      29.82F VSB 1/4
BROKEN BOW     CLEAR     58  55  90 CALM      29.83F
VALENTINE NWR    N/A     58  56  94 S6          N/A
HALSEY           N/A     65  59  81 S9          N/A
BUTTE            N/A     61  59  92 SE9         N/A
CHAMBERS         N/A     62  61  96 CALM        N/A
EWING            N/A     62  61  96 SE3         N/A
$$

...OBSERVATIONS IN SOUTHWEST NEBRASKA AND FAR NORTHEAST COLORADO...

CITY           SKY/WX    TMP DP  RH WIND       PRES   REMARKS
WRAY           FAIR      61  46  59 E7        29.85F
HOLYOKE        FAIR      61  50  67 SE8       29.84F
IMPERIAL       CLEAR     60  52  74 SE9       29.83F
OGALLALA       CLEAR     65  56  70 SE14      29.82F
NORTH PLATTE   CLEAR     58  56  93 E9        29.82F
MCCOOK         CLEAR     63  59  87 SE10      29.82F
LEXINGTON      CLEAR     64  61  90 SE6       29.83F
STAPLETON        N/A     62  59  89 CALM        N/A
GOTHENBURG       N/A     67  59  74 SE6         N/A
$$

...OBSERVATIONS IN CENTRAL LINCOLN COUNTY AREA...

CITY           SKY/WX    TMP DP  RH WIND       PRES   REMARKS
N.P. AIRPORT   CLEAR     58  56  93 E9        29.82F
N.P. DOWNTOWN    N/A     65  60  82 CALM        N/A
N.P. SOUTHEAST   N/A     65  59  82 E5          N/A
N.P. HILLCREST   N/A     62  58  87 E9          N/A
$$

...SOME OBSERVATIONS FROM AROUND THE REGION...

CITY           SKY/WX    TMP DP  RH WIND       PRES   REMARKS
DENVER         CLEAR     67  35  30 S18       29.84F
LIMON            N/A    N/A N/A N/A MISG      29.91F
ASPEN          CLOUDY    53  25  33 S16       30.06F
LARAMIE        CLOUDY    53  27  36 S14       29.91F
CASPER         CLOUDY    65  33  30 S17       29.71F
CHEYENNE       CLEAR     57  31  37 S8        29.86F
SCOTTSBLUFF    CLOUDY    64  45  49 SE9       29.76F
GRAND ISLAND   CLEAR     64  64 100 SE6       29.86F
OMAHA          PTCLDY    67  64  90 SE9       29.89F
SIOUX FALLS    CLOUDY    68  66  93 S10       29.85F
PIERRE         CLEAR     63  58  83 SE12      29.69F
BISMARCK       PTCLDY    53  49  86 E8        29.73F
KANSAS CITY    CLOUDY    67  67 100 SE10      29.92F FOG
HILL CITY      CLEAR     67  59  75 S5        29.85F
WICHITA        MOCLDY    72  68  87 S8        29.89S
DODGE CITY     CLEAR     70  64  81 S13       29.89F
OKLAHOMA CITY  PTCLDY    71  65  81 S7        29.91F
DALLAS         PTCLDY    80  71  74 S12       29.89F
AMARILLO       CLEAR     67  64  90 SE12      29.95F
$$




USA.gov is the U.S. government's official web portal to all federal, state and local government web resources and services.